{"data":{"norad_id":82708,"intl_designator":"","name":"UNKNOWN","alt_names":[],"object_type":"UNKNOWN","status":"UNKNOWN","operator":null,"country":null,"launch_date":null,"launch_site_code":null,"launch_vehicle":null,"mission":null,"orbit_class":"UNKNOWN","rcs_meters":null,"size_class":null,"mass_kg":null,"dimensions":null,"purposes":[],"wikipedia_slug":null,"has_3d_model":false,"image_url":null,"decayed_at":null,"tle_current":{"epoch":"2026-05-23T20:48:16.821504Z","epoch_age_seconds":172972,"freshness":"STALE","line1":"1 82708U          26143.86686136  .00000663  00000+0  26791-2 0  9996","line2":"2 82708 102.1542   7.6870 0066222 320.1057  39.5178 12.90870923544430","mean_motion":12.90870923,"eccentricity":0.0066222,"inclination_deg":102.1542,"raan_deg":7.687,"arg_perigee_deg":320.1057,"mean_anomaly_deg":39.5178,"bstar":0.0026791,"rev_number":54443,"period_min":111.55259401563,"perigee_km":1247.2357698709,"apogee_km":1348.9025145005,"semimajor_km":7676.2061421857,"source":"CELESTRAK","updated_at":"2026-05-25T13:38:11.193959Z"}}}